Data for 02/23/2018

Time Sea-Level Adjusted Pressure Absolute Pressure Temperature Relative Humidity Dew Point   
(mb) (inHg) (mb) (inHg) (C) (F) (%) (C) (F)
00:05 1018 30.06 847 25.01 -13.4 7.9 61 -19.4 -3
00:10 1018 30.06 847 25.01 -13.4 7.9 61 -19.3 -2.8
00:15 1018 30.06 847 25.01 -13.4 7.9 61 -19.3 -2.8
00:20 1018 30.06 847 25.01 -13.4 8 62 -19.2 -2.6
00:25 1018 30.06 847 25.01 -13.4 8 62 -19.2 -2.5
00:30 1018 30.06 847 25.01 -13.4 7.9 62 -19.2 -2.6
00:35 1018 30.06 847 25.01 -13.4 8 62 -19.2 -2.6
00:40 1018 30.06 847 25.01 -13.4 8 62 -19.1 -2.4
00:45 1018 30.06 847 25.01 -13.4 7.8 63 -19.1 -2.4
00:50 1018 30.06 847 25.01 -13.5 7.8 63 -19.1 -2.4
00:55 1018 30.06 847 25.01 -13.6 7.6 63 -19.2 -2.6
01:00 1018 30.06 847 25.01 -13.6 7.5 63 -19.3 -2.7
01:05 1018 30.06 847 25.01 -13.6 7.4 63 -19.3 -2.7
01:10 1018 30.06 847 25.01 -13.7 7.4 63 -19.3 -2.8
01:15 1018 30.06 847 25.01 -13.7 7.4 63 -19.3 -2.8
01:20 1018 30.06 847 25.01 -13.6 7.5 63 -19.3 -2.7
01:25 1018 30.06 847 25.01 -13.7 7.4 63 -19.2 -2.6
01:30 1018 30.06 847 25.01 -13.6 7.5 64 -19.2 -2.5
01:35 1018 30.06 847 25.01 -13.6 7.5 64 -19 -2.2
01:40 1018 30.06 847 25.01 -13.6 7.6 64 -18.9 -2.1
01:45 1018 30.06 847 25.01 -13.5 7.7 64 -19 -2.1
01:50 1018 30.06 847 25.01 -13.5 7.8 64 -18.9 -2
01:55 1018 30.06 847 25.01 -13.5 7.8 64 -18.9 -2
02:00 1018 30.06 847 25.01 -13.4 7.8 64 -18.9 -2.1
02:05 1018 30.06 847 25.01 -13.4 7.8 65 -18.8 -1.8
02:10 1018 30.06 847 25.01 -13.4 7.9 64 -18.8 -1.8
02:15 1018 30.06 847 25.01 -13.4 7.8 64 -18.8 -1.9
02:20 1018 30.06 847 25.01 -13.4 7.9 64 -18.7 -1.7
02:25 1018 30.06 847 25.01 -13.4 8 64 -18.9 -1.9
02:30 1018 30.06 847 25.01 -13.3 8 63 -18.9 -2
02:35 1018 30.06 847 25.01 -13.3 8.1 64 -18.8 -1.8
02:40 1018 30.06 847 25.01 -13.3 8.1 66 -18.4 -1.1
02:45 1018 30.06 847 25.01 -13.3 8.1 68 -18.1 -0.6
02:50 1018 30.06 847 25.01 -13.3 8 69 -17.8 -0
02:55 1018 30.06 847 25.01 -13.3 8 71 -17.5 0.5
03:00 1018 30.06 847 25.01 -13.3 8.1 71 -17.4 0.7
03:05 1018 30.06 847 25.01 -13.1 8.4 70 -17.5 0.5
03:10 1018 30.06 847 25.01 -13.2 8.3 72 -17.2 1
03:15 1018 30.06 847 25.01 -13.2 8.2 72 -17.3 0.9
03:20 1018 30.06 847 25.01 -13.5 7.7 73 -17.4 0.7
03:25 1018 30.06 847 25.01 -13.5 7.7 73 -17.4 0.7
03:30 1018 30.06 847 25.01 -13.6 7.6 73 -17.4 0.7
03:35 1018 30.06 847 25.01 -13.7 7.4 74 -17.3 0.8
03:40 1018 30.06 847 25.01 -13.6 7.6 73 -17.4 0.7
03:45 1018 30.06 847 25.01 -13.6 7.6 73 -17.4 0.7
03:50 1018 30.06 847 25.01 -13.6 7.5 73 -17.4 0.7
03:55 1018 30.06 847 25.01 -13.8 7.3 75 -17.3 0.8
04:00 1018 30.06 847 25.01 -13.6 7.4 74 -17.3 0.9
04:05 1018 30.06 847 25.01 -13.8 7.2 75 -17.3 0.8
04:10 1018 30.06 847 25.01 -13.9 7.1 75 -17.3 0.8
04:15 1018 30.06 847 25.01 -13.9 6.9 76 -17.3 0.8
04:20 1018 30.06 847 25.01 -14 6.8 76 -17.3 0.8
04:25 1018 30.06 847 25.01 -14 6.9 76 -17.3 0.8
04:30 1018 30.06 847 25.01 -14.1 6.7 77 -17.2 1
04:35 1018 30.06 847 25.01 -14.1 6.6 76 -17.4 0.7
04:40 1018 30.06 848 25.04 -14.3 6.3 77 -17.5 0.5
04:45 1018 30.06 848 25.04 -14.3 6.2 77 -17.6 0.4
04:50 1018 30.06 848 25.04 -14.4 6.1 77 -17.6 0.3
04:55 1018 30.06 848 25.04 -14.5 6 77 -17.7 0.2
05:00 1019 30.09 848 25.04 -14.5 5.8 77 -17.8 0
05:05 1019 30.09 848 25.04 -14.7 5.6 77 -17.8 -0.1
05:10 1019 30.09 848 25.04 -14.8 5.4 77 -18 -0.3
05:15 1019 30.09 848 25.04 -14.9 5.1 77 -18 -0.5
05:20 1019 30.09 848 25.04 -15.1 4.7 77 -18.3 -0.9
05:25 1019 30.09 848 25.04 -15.4 4.2 78 -18.5 -1.3
05:30 1019 30.09 848 25.04 -15.7 3.7 79 -18.6 -1.5
05:35 1019 30.09 848 25.04 -16.1 3.1 80 -18.8 -1.8
05:40 1019 30.09 848 25.04 -16.2 2.8 80 -19 -2.2
05:45 1019 30.09 848 25.04 -16.4 2.4 80 -19.1 -2.4
05:50 1019 30.09 848 25.04 -16.4 2.6 82 -18.8 -1.8
05:55 1019 30.09 848 25.04 -15.9 3.3 81 -18.5 -1.4
06:00 1019 30.09 848 25.04 -16 3.1 78 -19.1 -2.3
06:05 1019 30.09 848 25.04 -16.3 2.7 81 -18.8 -1.8
06:10 1019 30.09 848 25.04 -16.2 2.9 82 -18.5 -1.4
06:15 1019 30.09 848 25.04 -16.1 3 82 -18.6 -1.4
06:20 1019 30.09 848 25.04 -16.2 2.8 82 -18.6 -1.6
06:25 1019 30.09 848 25.04 -16.3 2.6 81 -18.8 -1.8
06:30 1019 30.09 848 25.04 -16.5 2.3 82 -19 -2.1
06:35 1019 30.09 848 25.04 -16.6 2.1 82 -19 -2.2
06:40 1019 30.09 848 25.04 -16.6 2.2 83 -18.8 -1.9
06:45 1019 30.09 848 25.04 -16.4 2.5 82 -18.7 -1.7
06:50 1019 30.09 848 25.04 -16.3 2.7 82 -18.7 -1.6
06:55 1019 30.09 848 25.04 -16.2 2.8 82 -18.6 -1.6
07:00 1019 30.09 848 25.04 -16.1 3 81 -18.7 -1.6
07:05 1019 30.09 848 25.04 -16.1 3 82 -18.6 -1.4
07:10 1019 30.09 848 25.04 -16.4 2.6 82 -18.8 -1.8
07:15 1019 30.09 848 25.04 -16.5 2.3 84 -18.6 -1.5
07:20 1019 30.09 848 25.04 -16.4 2.5 85 -18.4 -1.1
07:25 1019 30.09 848 25.04 -16.3 2.6 85 -18.3 -1
07:30 1019 30.09 848 25.04 -16.5 2.4 83 -18.7 -1.6
07:35 1019 30.09 848 25.04 -16.5 2.4 82 -18.8 -1.8
07:40 1019 30.09 848 25.04 -16.2 2.9 81 -18.8 -1.8
07:45 1019 30.09 849 25.07 -15.6 4 78 -18.6 -1.5
07:50 1019 30.09 849 25.07 -14.9 5.2 76 -18.3 -1
07:55 1019 30.09 849 25.07 -14.5 5.8 74 -18.2 -0.8
08:00 1019 30.09 849 25.07 -14.2 6.5 71 -18.3 -1
08:05 1020 30.12 849 25.07 -13.9 6.9 69 -18.4 -1.1
08:10 1020 30.12 849 25.07 -13.5 7.7 66 -18.5 -1.3
08:15 1020 30.12 849 25.07 -13.5 7.8 66 -18.6 -1.5
08:20 1020 30.12 849 25.07 -13.5 7.8 66 -18.5 -1.2
08:25 1020 30.12 849 25.07 -13 8.6 65 -18.3 -1
08:30 1020 30.12 849 25.07 -12.3 9.8 62 -18.1 -0.6
08:35 1020 30.12 849 25.07 -12.9 8.8 63 -18.5 -1.2
08:40 1020 30.12 849 25.07 -13.4 7.9 67 -18.2 -0.8
08:45 1020 30.12 849 25.07 -13.4 7.9 66 -18.4 -1.2
08:50 1020 30.12 849 25.07 -13.6 7.5 68 -18.2 -0.8
08:55 1020 30.12 849 25.07 -13.5 7.8 68 -18.2 -0.8
09:00 1020 30.12 849 25.07 -13.4 8 67 -18.2 -0.7
09:05 1020 30.12 849 25.07 -13.5 7.7 69 -18.1 -0.6
09:10 1019 30.09 849 25.07 -13.1 8.5 69 -17.7 0.2
09:15 1019 30.09 849 25.07 -12.1 10.2 64 -17.5 0.5
09:20 1019 30.09 849 25.07 -11.5 11.3 62 -17.4 0.7
09:25 1019 30.09 849 25.07 -11.3 11.7 63 -17.1 1.3
09:30 1020 30.12 849 25.07 -11 12.2 61 -17.2 1.1
09:35 1020 30.12 849 25.07 -10.2 13.6 58 -17 1.3
09:40 1020 30.12 849 25.07 -9.6 14.8 57 -16.6 2.2
09:45 1019 30.09 849 25.07 -9.8 14.4 59 -16.4 2.4
09:50 1019 30.09 849 25.07 -9.2 15.4 56 -16.4 2.5
09:55 1019 30.09 849 25.07 -9.4 15.1 57 -16.5 2.3
10:00 1019 30.09 849 25.07 -9 15.9 55 -16.5 2.3
10:05 1020 30.12 849 25.07 -8.7 16.4 55 -16.2 2.8
10:10 1020 30.12 849 25.07 -8.4 16.8 54 -16.2 2.9
10:15 1020 30.12 849 25.07 -8.3 17.1 53 -16.2 2.8
10:20 1020 30.12 849 25.07 -8.4 17 53 -16.4 2.5
10:25 1020 30.12 849 25.07 -8.7 16.3 53 -16.6 2.1
10:30 1019 30.09 849 25.07 -8.5 16.7 52 -16.6 2.1
10:35 1019 30.09 849 25.07 -7.8 18 51 -16.2 2.9
10:40 1019 30.09 849 25.07 -7.9 17.9 51 -16.3 2.6
10:45 1019 30.09 849 25.07 -7.6 18.4 50 -16.2 2.8
10:50 1019 30.09 848 25.04 -7.5 18.5 51 -16 3.1
10:55 1019 30.09 848 25.04 -7 19.4 49 -16 3.3
11:00 1019 30.09 848 25.04 -7.1 19.3 49 -16.2 2.9
11:05 1019 30.09 848 25.04 -7.2 19.1 49 -16.2 2.8
11:10 1019 30.09 848 25.04 -7.3 18.8 51 -15.8 3.6
11:15 1019 30.09 848 25.04 -7.4 18.7 52 -15.6 3.9
11:20 1019 30.09 848 25.04 -6.6 20.1 49 -15.7 3.7
11:25 1019 30.09 848 25.04 -6.7 20 50 -15.5 4
11:30 1019 30.09 848 25.04 -6.4 20.4 48 -15.6 3.9
11:35 1019 30.09 848 25.04 -6.9 19.6 49 -16 3.3
11:40 1019 30.09 848 25.04 -7.3 18.8 52 -15.6 3.9
11:45 1019 30.09 848 25.04 -7 19.4 50 -15.7 3.7
11:50 1019 30.09 848 25.04 -6.3 20.6 48 -15.5 4
11:55 1019 30.09 848 25.04 -5.9 21.4 49 -14.8 5.3
12:00 1019 30.09 848 25.04 -5.5 22 48 -14.8 5.4
12:05 1019 30.09 848 25.04 -5.8 21.6 48 -15.2 4.6
12:10 1019 30.09 848 25.04 -5.9 21.3 48 -15.2 4.7
12:15 1019 30.09 848 25.04 -6.3 20.6 51 -15 5.1
12:20 1018 30.06 848 25.04 -5.9 21.4 47 -15.4 4.3
12:25 1018 30.06 848 25.04 -6 21.2 51 -14.6 5.8
12:30 1018 30.06 847 25.01 -5.9 21.4 49 -15 5.1
12:35 1018 30.06 847 25.01 -6 21.2 49 -15.2 4.6
12:40 1018 30.06 847 25.01 -6 21.2 50 -14.8 5.4
12:45 1018 30.06 847 25.01 -5.8 21.5 48 -15.2 4.7
12:50 1018 30.06 847 25.01 -5.7 21.8 49 -14.7 5.5
12:55 1018 30.06 847 25.01 -5.9 21.5 50 -14.8 5.3
13:00 1018 30.06 847 25.01 -5.7 21.7 50 -14.7 5.6
13:05 1018 30.06 847 25.01 -5.8 21.6 48 -15.1 4.8
13:10 1018 30.06 847 25.01 -5.6 22 47 -15 4.9
13:15 1018 30.06 847 25.01 -5.5 22.1 49 -14.7 5.5